Hourly Data Report for September 22, 2020

SHEARWATER RCS
NOVA SCOTIA
Current Station Operator: ECCC - MSC

44°37'47.000" N
63°30'48.000" W
24.00 m
8205092
71264
AAW

Download Data

Hourly Data (September 2020)
Hourly Data Report for September 22, 2020
TIME Temp Definition
°C
Dew Point Definition
°C
Rel Hum Definition
%
Wind Dir Definition
10's deg

Wind Spd Definition
km/h
Visibility Definition
km
Stn Press Definition
kPa
Hmdx Definition


Wind Chill Definition


Weather Definition


00:00 9.0 4.2 72 2 11   102.37     LegendNANA
01:00 8.2 4.3 76 3 10   102.32     LegendNANA
02:00 7.8 4.4 79 3 11   102.20     LegendNANA
03:00 7.9 4.3 78 3 10   102.09     LegendNANA
04:00 8.4 2.7 67 3 14   101.98     LegendNANA
05:00 8.4 3.4 71 2 15   101.82     LegendNANA
06:00 8.6 3.8 72 2 17   101.67     LegendNANA
07:00 9.2 4.3 71 3 19   101.54     LegendNANA
08:00 9.7 5.3 74 2 18   101.40     LegendNANA
09:00 10.2 6.3 77 3 23   101.26     LegendNANA
10:00 9.4 6.9 84 2 22   101.10     LegendNANA
11:00 9.7 7.4 86 2 30   100.86     LegendNANA
12:00 9.6 8.4 92 2 29   100.59     LegendNANA
13:00 9.6 8.4 92 2 30   100.34     LegendNANA
14:00 10.1 9.0 93 3 23   100.16     LegendNANA
15:00 10.7 9.5 93 2 31   99.82     LegendNANA
16:00 11.4 10.4 94 3 28   99.59     LegendNANA
17:00 12.0 11.0 94 2 28   99.47     LegendNANA
18:00 12.1 11.1 93 3 24   99.35     LegendNANA
19:00 12.6 11.5 93 2 33   99.16     LegendNANA
20:00 13.3 12.4 94 2 24   99.09     LegendNANA
21:00 14.0 13.1 95 2 24   98.98     LegendNANA
22:00 14.8 14.1 95 1 22   98.81     LegendNANA
23:00 16.7 16.1 96 4 18   98.67     LegendNANA

Notes on Data Quality.

Legend

  • E = Estimated
  • M = Missing
  • NA = Not Available*
  • [empty] = Indicates an unobserved value
Date modified: